Location: Chinna Viriv?da
(16.5281°N, 81.0493°E)
Time: 08:55:54
(UTC+00:00)

Cosmos 1842 Rocket - Pass Details

Date: 14 April 2026
Orbit: 600 x 625 km, 82.5° (Epoch: 12 May)

Event Time Altitude Azimuth Distance (km) Brightness Sun altitude
Exits shadow 22:42:11 81° 178° (S) 611 3.4 -23.7°
Maximum altitude 22:42:24 89° 92° (E) 604 3.4 -23.7°
Drops below altitude 10° 22:46:41 10° 5° (N) 1,936 6.4 -22.7°
Sets 22:48:53 0° 5° (N) 2,838 7.3 -22.2°
